Regional Weather Roundup
Issued by NWS

Home | Current Version | Previous Version | Text Only | Print | Product List | Glossary On
Versions: 1 2 3 4 5 6 7 8 9 10 11 12 13 14 15 16 17 18 19 20 21 22 23 24 25 26 27 28 29 30 31 32 33 34 35 36 37 38 39 40 41 42 43 44 45 46 47 48 49 50
000
ASUS43 KMPX 250010
RWRMN
WEATHER ROUNDUP FOR MINNESOTA
NATIONAL WEATHER SERVICE TWIN CITIES/CHANHASSEN MN
700 PM CDT THU JUL 24 2014


NOTE: "FAIR" INDICATES FEW OR NO CLOUDS BELOW 12,000 FEET WITH NO
SIGNIFICANT WEATHER AND/OR OBSTRUCTIONS TO VISIBILITY. N/A MEANS
CURRENT SKY AND/OR WEATHER CONDITIONS ARE NOT AVAILABLE.

MNZ060>063-068>070-250100-
   Twin Cities Metro

CITY           SKY/WX    TMP DP  RH WIND       PRES   REMARKS
TWIN CITIES    CLOUDY    79  59  50 S7        29.92R
6HR MIN TEMP:  77; 6HR MAX TEMP:  82;

ST PAUL        CLOUDY    78  60  53 S9        29.93R
CRYSTAL        CLOUDY    79  60  52 SW5       29.91R
BLAINE         PTSUNNY   79  61  53 S12G17    29.93R
LAKEVILLE      CLOUDY    73  61  64 SW12G22   29.90R
EDEN PRAIRIE   PTSUNNY   77  61  57 SW12G20   29.91R
6HR MIN TEMP:  76; 6HR MAX TEMP:  81; 6HR PCP: TRACE;

SOUTH ST PAUL  CLOUDY    79  58  48 S6        29.93R
LAKE ELMO      PTSUNNY   77  63  61 SE5       29.95R
$$
MNZ001>005-007-008-013>017-022>024-027-028-250100-
   Northwest Minnesota

CITY           SKY/WX    TMP DP  RH WIND       PRES   REMARKS
BEMIDJI        MOSUNNY   74  55  50 S3        29.94R
HALLOCK        PTSUNNY   77  64  65 SE7       29.88F
ROSEAU         CLOUDY    70  64  83 CALM      29.93R
WARROAD        CLOUDY    70  64  83 S3        29.94R
THIEF RVR FALL MOSUNNY   75  59  57 SE8       29.90F
CROOKSTON      PTSUNNY   75  59  57 S7        29.91R
FOSSTON        SUNNY     81  61  50 CALM      29.92F
DETROIT LAKES  MOSUNNY   72  59  64 S3        29.92S
MOORHEAD       MOSUNNY   75  64  69 S13G18    29.88S
PARK RAPIDS    SUNNY     75  57  53 S8        29.92S
$$
MNZ006-009>011-018-025>026-250100-
   North Central Minnesota

CITY           SKY/WX    TMP DP  RH WIND       PRES   REMARKS
BAUDETTE       CLOUDY    70  59  68 SW3       29.94F
FLAG ISLAND    PTSUNNY   72  57  60 CALM      29.91S
INTL FALLS     PTSUNNY   72  57  59 CALM      29.94R
6HR MIN TEMP:  72; 6HR MAX TEMP:  77;

WASKISH        LGT RAIN  66  64  94 CALM      29.96R
BIG FORK       PTSUNNY   66  59  77 CALM      29.96R
LONGVILLE      SUNNY     75  57  53 S5        29.94R
GRAND RAPIDS   MOSUNNY   73  55  53 CALM      29.96R
CRANE LAKE     PTSUNNY   72  54  53 CALM      29.96R
ORR            PTSUNNY   70  54  56 CALM      29.94R
COOK           CLOUDY    70  59  68 CALM      29.97R
$$
MNZ012-019>021-037-250100-
   Northeast Minnesota

CITY           SKY/WX    TMP DP  RH WIND       PRES   REMARKS
DULUTH         CLOUDY    71  56  58 SE7       29.94S
6HR MIN TEMP:  71; 6HR MAX TEMP:  78;

ELY            PTSUNNY   72  55  56 CALM      29.95S
HIBBING        CLOUDY    73  53  49 SW3       29.96R
EVELETH        CLOUDY    72  52  49 SW6       29.97R
DULUTH HARBOR  CLOUDY    64  57  77 NE6       29.93S
TWO HARBORS    CLOUDY    70  55  60 E5        29.92F
SILVER BAY     PTSUNNY   66  57  72 CALM      29.93F
GRAND MARAIS     N/A     58  51  78 CALM      29.95F
G MARAIS ARPRT SUNNY     63  50  63 S5        30.00S
$$
MNZ029>031-032-039>041-046>048-054>057-064-250100-
   West Central Minnesota

CITY           SKY/WX    TMP DP  RH WIND       PRES   REMARKS
FERGUS FALLS   MOSUNNY   72  59  64 S15       29.88R
WHEATON        PTSUNNY   70  61  73 S10G23    29.87R
MORRIS         MOSUNNY   72  63  73 S13G22    29.86S
ALEXANDRIA     MOSUNNY   72  62  71 S10       29.92S
ELBOW LAKE     FAIR      72  62  72 S17G23    29.88S
WADENA         PTSUNNY   73  61  64 CALM      29.92R
GLENWOOD       SUNNY     70  61  73 S10       29.92R
APPLETON       MOSUNNY   73  61  64 S12G18    29.85F
BENSON         PTSUNNY   72  61  68 SW20      29.87S
ORTONVILLE     PTSUNNY   72  61  68 S9        29.86S
MADISON        MOSUNNY   73  63  68 S16G22    29.86S
WILLMAR        FAIR      73  59  60 S8        29.89F
$$
MNZ033>034-036-042>043-049>051-058-059-250100-
   Central Minnesota

CITY           SKY/WX    TMP DP  RH WIND       PRES   REMARKS
ST CLOUD       CLOUDY    76  61  59 SW8       29.92S
6HR MIN TEMP:  74; 6HR MAX TEMP:  83;

SAUK CENTRE    FAIR      73  63  70 S8        29.92F
PAYNESVILLE    SUNNY     69  61  75 S7        29.92R
AITKIN         SUNNY     77  59  53 S6        29.92R
PINE RIVER     SUNNY     75  57  53 S7        29.96R
BRAINERD       SUNNY     74  56  53 S13       29.93S
STAPLES        CLOUDY    72  57  60 S6        29.92S
LONG PRAIRIE   CLOUDY    70  61  73 S6        29.93S
LITTLE FALLS   CLOUDY    72  57  60 S3        29.93S
LITCHFIELD     SUNNY     73  64  73 S6        29.91R
BUFFALO        MOSUNNY   75  61  61 S6        29.94R
MAPLE LAKE     PTSUNNY   75  64  69 SW8       29.94R
$$
MNZ037-044-045-052-053-250100-
   East Central Minnesota

CITY           SKY/WX    TMP DP  RH WIND       PRES   REMARKS
PRINCETON      CLOUDY    77  59  53 S6        29.93R
MORA           PTSUNNY   75  55  50 S5        29.94S
CAMBRIDGE      PTSUNNY   81  61  50 SE7       29.92R
RUSH CITY      CLOUDY    76  61  58 SE6       29.93S
MOOSE LAKE     PTSUNNY   75  55  50 S7        29.91S
HINCKLEY       FAIR      77  61  57 S7        29.93S
CLOQUET        CLOUDY    73  54  49 S7        29.93F
MCGREGOR       MOSUNNY   75  55  50 S8        29.94R
$$
MNZ071>073-080-081-089-090-097-098-250100-
   Southwest Minnesota

CITY           SKY/WX    TMP DP  RH WIND       PRES   REMARKS
MONTEVIDEO     CLOUDY    72  63  73 SW14G21   29.88S
GRANITE FALLS  PTSUNNY   71  61  71 S16G24    29.89S
CANBY          CLOUDY    70  60  71 S8G17     29.87F
MARSHALL       SUNNY     70  55  60 S21G29    29.87F
REDWOOD FALLS  MOSUNNY   72  62  71 S17G25    29.88F
OLIVIA         SUNNY     72  61  68 S18       29.88F
PIPESTONE      MOSUNNY   66  57  72 S16G23    29.89R
WINDOM         PTSUNNY   68  59  73 S15G25    29.91F
WORTHINGTON    PTSUNNY   66  59  77 S18G29    29.90F
JACKSON        CLOUDY    66  57  72 S13G26    29.92F
TRACY          SUNNY     69  59  70 S16G26    29.89F
SLAYTON        MOSUNNY   66  58  77 S16G22    29.91F
$$
MNZ065>067-074>077-082>085-091>093-250100-
   South Central Minnesota

CITY           SKY/WX    TMP DP  RH WIND       PRES   REMARKS
MANKATO        PTSUNNY   73  59  60 S15G22    29.91F
NEW ULM        MOSUNNY   72  63  73 S17       29.89F
ST JAMES       PTSUNNY   72  63  73 SE9G17    29.92F
FAIRMONT       CLOUDY    70  59  68 S15       29.92F
GLENCOE        MOSUNNY   74  60  61 S14G21    29.89S
FARIBAULT      CLOUDY    79  54  41 S14G23    29.89F
OWATONNA       CLOUDY    75  57  53 S14G21    29.92F
WASECA         CLOUDY    72  54  53 S17       29.94F
ALBERT LEA     CLOUDY    73  59  60 S12G17    29.95R
$$
MNZ078>079-086>088-094>096-250100-
   Southeast Minnesota

CITY           SKY/WX    TMP DP  RH WIND       PRES   REMARKS
ROCHESTER      CLOUDY    73  58  59 S8        29.97F
6HR MIN TEMP:  73; 6HR MAX TEMP:  78;

RED WING       CLOUDY    79  57  47 SE7       29.92R
STANTON        CLOUDY    77  59  53 S14G23    29.86F
DODGE CENTER   CLOUDY    75  61  60 S13       29.95R
WINONA         CLOUDY    73  59  60 CALM      29.97F
AUSTIN         CLOUDY    73  61  64 S10G17    29.95S
PRESTON        CLOUDY    71  63  75 S10       29.97F
$$
ABBREVIATIONS USED IN REMARKS
   TC - TEMPERATURES IN CELSIUS
  WCI - WIND CHILL INDEX
   HX - HEAT INDEX
  VSB - VISIBILITY
$$



USA.gov is the U.S. government's official web portal to all federal, state and local government web resources and services.